This is the latest recevied weather packets stored in our database for station/object EA3DJ-10. If no packets are shown the sender has not sent any weather packets the latest 10 day(s).
| Time | Temp. | Humidity | Pressure | Rain* | Wind** | Luminosity | Snow |
|---|---|---|---|---|---|---|---|
| 1788212399 | 27.22° C | 50% | 1021.9 hPa | - | - | - | - |
| 1788211199 | 27.22° C | 49% | 1021.9 hPa | - | - | - | - |
| 1788209999 | 27.22° C | 49% | 1021.7 hPa | - | - | - | - |
| 1788208799 | 27.22° C | 49% | 1021.7 hPa | - | - | - | - |
| 1788207599 | 27.22° C | 49% | 1021.6 hPa | - | - | - | - |
| 1788206399 | 27.22° C | 49% | 1021.3 hPa | - | - | - | - |
| 1788205199 | 27.22° C | 48% | 1021.1 hPa | - | - | - | - |
| 1788203998 | 27.22° C | 48% | 1020.8 hPa | - | - | - | - |
| 1788202798 | 27.22° C | 48% | 1020.5 hPa | - | - | - | - |
| 1788201598 | 27.22° C | 47% | 1020.3 hPa | - | - | - | - |
| 1788200398 | 27.22° C | 47% | 1020.1 hPa | - | - | - | - |
| 1788199198 | 26.67° C | 47% | 1019.9 hPa | - | - | - | - |
| 1788197996 | 26.67° C | 46% | 1019.9 hPa | - | - | - | - |
| 1788196796 | 26.67° C | 46% | 1020 hPa | - | - | - | - |
| 1788195596 | 26.11° C | 45% | 1019.9 hPa | - | - | - | - |
| 1788194396 | 25.56° C | 44% | 1020 hPa | - | - | - | - |
| 1788193196 | 24.44° C | 52% | 1020.2 hPa | - | - | - | - |
| 1788192013 | 25° C | 55% | 1020.2 hPa | - | - | - | - |
| 1788190795 | 24.44° C | 46% | 1020.2 hPa | - | - | - | - |
| 1788189595 | 26.11° C | 54% | 1020.3 hPa | - | - | - | - |
| 1788188395 | 24.44° C | 45% | 1020.3 hPa | - | - | - | - |
| 1788187195 | 25° C | 43% | 1020.2 hPa | - | - | - | - |
| 1788185995 | 25.56° C | 46% | 1020.3 hPa | - | - | - | - |
| 1788184800 | 28.33° C | 46% | 1020.4 hPa | - | - | - | - |
| 1788183595 | 28.33° C | 46% | 1020.4 hPa | - | - | - | - |
* Rain since midnight (hover to see other rain measurements)
** Current wind speed in m/s (hover to see current wind gust speed)